Page, AZ

6:02 AM MST on November 22, 2017 (GMT -0700)
Page Municipal

Weather History for KPGA - March, 2013

Change the Weather History Date:

Monday, March 18, 2013

  Actual Average Record
Temperature  
Mean Temperature 56 °F -  
Max Temperature 68 °F 60 °F 81 °F (2017)
Min Temperature 45 °F 36 °F 27 °F (1963)
Degree Days  
Heating Degree Days 8    
Growing Degree Days 6 (Base 50)    
Moisture  
Dew Point 7 °F    
Average Humidity 13    
Maximum Humidity 27    
Minimum Humidity 4    
Precipitation  
Precipitation 0.00 in - - ()
Sea Level Pressure  
Sea Level Pressure 29.87 in    
Wind  
Wind Speed 4 mph (West)    
Max Wind Speed 9 mph    
Max Gust Speed 17 mph    
Visibility 10 miles    
Events      
Averages and records for this station are not official NWS values.
T = Trace of Precipitation, MM = Missing Value Source: NWS Daily Summary

Daily Weather History Graph

Daily Weather History Graph

Search for Another Location

Airport or City:

Trip Planner

Search our weather history database for the weather conditions in past years. The results will help you decide how hot, cold, wet, or windy it might be!

Date:

Astronomy

Mar. 18, 2013 Rise Set
Actual Time 6:31 AM MST 6:36 PM MST
Civil Twilight 6:06 AM MST 7:02 PM MST
Nautical Twilight 5:35 AM MST 7:32 PM MST
Astronomical Twilight 5:05 AM MST 8:02 PM MST
Moon 10:42 AM MST (3/18) 12:30 AM MST (3/18)
Length of Visible Light 12h 56m
Length of Day
12h 04m
Waxing Crescent, 41% of the Moon is Illuminated
Mar 18
Waxing Crescent
Mar 19
First Quarter
Mar 27
Full
Apr 2
Last Quarter
Apr 10
New

Hourly Weather History & Observations

Time (MST) Temp. Dew Point Humidity Pressure Visibility Wind Dir Wind Speed Gust Speed Precip Events Conditions
12:53 AM 54.0 °F 9.0 °F 17% 29.79 in 10.0 mi West 4.6 mph - N/A   Clear
1:53 AM 54.0 °F 8.1 °F 16% 29.80 in 10.0 mi West 6.9 mph - N/A   Clear
2:53 AM 53.1 °F 9.0 °F 17% 29.80 in 10.0 mi West 4.6 mph - N/A   Clear
3:53 AM 48.0 °F 10.9 °F 22% 29.82 in 10.0 mi Calm Calm - N/A   Clear
4:53 AM 46.0 °F 12.9 °F 26% 29.84 in 10.0 mi Calm Calm - N/A   Clear
5:53 AM 46.0 °F 12.9 °F 26% 29.86 in 10.0 mi Calm Calm - N/A   Clear
6:53 AM 45.0 °F 12.9 °F 27% 29.90 in 10.0 mi Calm Calm - N/A   Clear
7:53 AM 50.0 °F 12.9 °F 23% 29.92 in 10.0 mi WNW 3.5 mph - N/A   Clear
8:53 AM 54.0 °F 9.0 °F 17% 29.94 in 10.0 mi West 8.1 mph - N/A   Clear
9:53 AM 57.0 °F 10.0 °F 15% 29.94 in 10.0 mi Variable 5.8 mph 16.1 mph N/A   Clear
10:53 AM 60.1 °F 7.0 °F 12% 29.94 in 10.0 mi North 9.2 mph - N/A   Clear
11:53 AM 61.0 °F 7.0 °F 12% 29.92 in 10.0 mi East 5.8 mph 16.1 mph N/A   Clear
12:53 PM 62.1 °F 5.0 °F 10% 29.91 in 10.0 mi Calm Calm - N/A   Clear
1:53 PM 66.0 °F 3.9 °F 9% 29.87 in 10.0 mi Variable 3.5 mph - N/A   Clear
2:53 PM 66.0 °F 3.0 °F 8% 29.84 in 10.0 mi Variable 4.6 mph - N/A   Clear
3:53 PM 66.0 °F 3.0 °F 8% 29.84 in 10.0 mi Variable 5.8 mph - N/A   Clear
4:53 PM 68.0 °F 3.0 °F 8% 29.83 in 10.0 mi NNE 3.5 mph - N/A   Clear
5:53 PM 66.9 °F -0.0 °F 7% 29.83 in 10.0 mi West 6.9 mph 17.3 mph N/A   Clear
6:53 PM 64.0 °F 1.0 °F 8% 29.84 in 10.0 mi West 8.1 mph - N/A   Clear
7:53 PM 63.0 °F 1.9 °F 9% 29.85 in 10.0 mi WSW 8.1 mph 17.3 mph N/A   Clear
8:53 PM 61.0 °F 5.0 °F 11% 29.86 in 10.0 mi West 4.6 mph - N/A   Clear
9:53 PM 59.0 °F 8.1 °F 13% 29.88 in 10.0 mi SW 5.8 mph - N/A   Clear
10:53 PM 57.9 °F 8.1 °F 14% 29.88 in 10.0 mi WSW 6.9 mph - N/A   Clear
11:53 PM 57.0 °F 8.1 °F 14% 29.88 in 10.0 mi Calm Calm - N/A   Clear